Tel Aviv, Israel

2:07 AM IDT on July 29, 2016 (GMT +0300)
Ben Gurion

Weather History for LLBG - March, 2013

Change the Weather History Date:

Monday, March 18, 2013

  Actual Average Record
Temperature  
Mean Temperature 60 °F -  
Max Temperature 66 °F 71 °F 86 °F (2001)
Min Temperature 55 °F 54 °F 42 °F (2012)
Degree Days  
Heating Degree Days 4    
Growing Degree Days 10 (Base 50)    
Moisture  
Dew Point 42 °F    
Average Humidity 50    
Maximum Humidity 67    
Minimum Humidity 31    
Precipitation  
Precipitation 0.00 in - - ()
Sea Level Pressure  
Sea Level Pressure 30.06 in    
Wind  
Wind Speed 8 mph ()    
Max Wind Speed 13 mph    
Max Gust Speed -    
Visibility 6.2 miles    
Events      
Averages and records for this station are not official NWS values.
T = Trace of Precipitation, MM = Missing Value Source: Averaged Metar Reports

Daily Weather History Graph

Daily Weather History Graph

Search for Another Location

Airport or City:

Trip Planner

Search our weather history database for the weather conditions in past years. The results will help you decide how hot, cold, wet, or windy it might be!

Date:

Astronomy

Mar. 18, 2013 Rise Set
Actual Time 5:46 AM IST 5:50 PM IST
Civil Twilight 5:22 AM IST 6:14 PM IST
Nautical Twilight 4:54 AM IST 6:43 PM IST
Astronomical Twilight 4:25 AM IST 7:12 PM IST
Moon 9:49 AM IST (3/18) No Moon Set
Length of Visible Light 12h 52m
Length of Day
12h 03m
Waxing Crescent, 38% of the Moon is Illuminated
Mar 18
Waxing Crescent
Mar 19
First Quarter
Mar 27
Full
Apr 3
Last Quarter
Apr 10
New

Hourly Weather History & Observations

Time (IST) Temp. Dew Point Humidity Pressure Visibility Wind Dir Wind Speed Gust Speed Precip Events Conditions
12:20 AM 59.0 °F 41.0 °F 51% 30.06 in 6.2 mi WNW 10.4 mph - N/A   Partly Cloudy
12:50 AM 59.0 °F 41.0 °F 51% 30.06 in 6.2 mi WNW 8.1 mph - N/A   Partly Cloudy
1:20 AM 59.0 °F 42.8 °F 55% 30.06 in 6.2 mi WNW 9.2 mph - N/A   Scattered Clouds
1:50 AM 59.0 °F 42.8 °F 55% 30.06 in 6.2 mi WNW 8.1 mph - N/A   Mostly Cloudy
2:00 AM 60 °F 43 °F 41% 30.08 in 6 mi WNW 9.2 mph - -  
2:20 AM 59.0 °F 44.6 °F 59% 30.06 in 6.2 mi WNW 8.1 mph - N/A   Mostly Cloudy
2:50 AM 59.0 °F 44.6 °F 59% 30.06 in 6.2 mi WNW 10.4 mph - N/A   Mostly Cloudy
3:20 AM 59.0 °F 44.6 °F 59% 30.06 in 6.2 mi WNW 11.5 mph - N/A   Scattered Clouds
3:50 AM 60.8 °F 44.6 °F 55% 30.06 in 6.2 mi NW 10.4 mph - N/A   Scattered Clouds
4:20 AM 59.0 °F 42.8 °F 55% 30.06 in - NW 9.2 mph - N/A   Clear
4:50 AM 59.0 °F 42.8 °F 55% 30.06 in - NW 9.2 mph - N/A   Clear
5:20 AM 59.0 °F 42.8 °F 55% 30.06 in - NW 9.2 mph - N/A   Clear
5:50 AM 59.0 °F 41.0 °F 51% 30.06 in - NW 5.8 mph - N/A   Clear
6:20 AM 57.2 °F 41.0 °F 55% 30.06 in - WNW 4.6 mph - N/A   Clear
6:50 AM 59.0 °F 41.0 °F 51% 30.09 in - NW 4.6 mph - N/A   Clear
7:20 AM 60.8 °F 42.8 °F 52% 30.09 in - WNW 4.6 mph - N/A   Clear
7:50 AM 60.8 °F 41.0 °F 48% 30.09 in - WNW 4.6 mph - N/A   Clear
8:00 AM 61 °F 41 °F 37% 30.10 in 6 mi NNW 8.1 mph - -  
8:20 AM 62.6 °F 41.0 °F 45% 30.09 in 6.2 mi WNW 6.9 mph - N/A   Scattered Clouds
8:50 AM 62.6 °F 41.0 °F 45% 30.09 in 6.2 mi NNW 8.1 mph - N/A   Scattered Clouds
9:20 AM 62.6 °F 41.0 °F 45% 30.12 in 6.2 mi NW 9.2 mph - N/A   Scattered Clouds
9:50 AM 62.6 °F 41.0 °F 45% 30.12 in 6.2 mi WNW 8.1 mph - N/A   Scattered Clouds
10:20 AM 64.4 °F 37.4 °F 37% 30.09 in 6.2 mi WNW 9.2 mph - N/A   Scattered Clouds
10:50 AM 64.4 °F 39.2 °F 40% 30.09 in - WNW 10.4 mph - N/A   Clear
11:20 AM 64.4 °F 39.2 °F 40% 30.09 in - NW 6.9 mph - N/A   Clear
11:50 AM 64.4 °F 39.2 °F 40% 30.06 in - WNW 8.1 mph - N/A   Clear
12:20 PM 64.4 °F 39.2 °F 40% 30.06 in 6.2 mi WNW 8.1 mph - N/A   Scattered Clouds
12:50 PM 66.2 °F 39.2 °F 37% 30.06 in 6.2 mi WNW 8.1 mph - N/A   Scattered Clouds
1:20 PM 66.2 °F 41.0 °F 40% 30.04 in 6.2 mi WNW 10.4 mph - N/A   Scattered Clouds
1:50 PM 64.4 °F 41.0 °F 42% 30.04 in 6.2 mi WNW 10.4 mph - N/A   Scattered Clouds
2:00 PM 65 °F 42 °F 31% 30.06 in 6 mi West 9.2 mph - -  
2:20 PM 64.4 °F 41.0 °F 42% 30.04 in 6.2 mi WNW 12.7 mph - N/A   Scattered Clouds
2:50 PM 64.4 °F 41.0 °F 42% 30.04 in 6.2 mi WNW 10.4 mph - N/A   Partly Cloudy
3:20 PM 64.4 °F 41.0 °F 42% 30.01 in 6.2 mi WNW 10.4 mph - N/A   Partly Cloudy
3:50 PM 64.4 °F 39.2 °F 40% 30.04 in 6.2 mi NW 11.5 mph - N/A   Partly Cloudy
4:20 PM 62.6 °F 39.2 °F 42% 30.04 in 6.2 mi WNW 11.5 mph - N/A   Partly Cloudy
4:50 PM 62.6 °F 41.0 °F 45% 30.04 in - NW 11.5 mph - N/A   Clear
5:20 PM 62.6 °F 41.0 °F 45% 30.04 in - NW 11.5 mph - N/A   Clear
5:50 PM 60.8 °F 44.6 °F 55% 30.04 in - NNW 9.2 mph - N/A   Clear
6:20 PM 60.8 °F 44.6 °F 55% 30.04 in - North 8.1 mph - N/A   Clear
6:50 PM 59.0 °F 44.6 °F 59% 30.04 in - North 6.9 mph - N/A   Clear
7:20 PM 59.0 °F 42.8 °F 55% 30.06 in - North 5.8 mph - N/A   Clear
7:50 PM 59.0 °F 42.8 °F 55% 30.06 in - North 5.8 mph - N/A   Clear
8:00 PM 59 °F 43 °F 45% 30.07 in 6 mi North 5.8 mph - -  
8:20 PM 59.0 °F 42.8 °F 55% 30.06 in - North 3.5 mph - N/A   Clear
8:50 PM 59.0 °F 42.8 °F 55% 30.06 in - Variable 2.3 mph - N/A   Clear
9:20 PM 57.2 °F 44.6 °F 63% 30.06 in - East 6.9 mph - N/A   Clear
9:50 PM 57.2 °F 44.6 °F 63% 30.06 in - East 8.1 mph - N/A   Clear
10:20 PM 55.4 °F 44.6 °F 67% 30.04 in - East 5.8 mph - N/A   Clear
10:50 PM 55.4 °F 44.6 °F 67% 30.04 in - Variable 3.5 mph - N/A   Clear
11:20 PM 55.4 °F 44.6 °F 67% 30.04 in - Variable 3.5 mph - N/A   Clear
11:50 PM 55.4 °F 44.6 °F 67% 30.04 in - Variable 3.5 mph - N/A   Clear